Home   Wetter   Kazakhstan   Oral   Vergangene Wochen
Flagge von Kazakhstan

Wetter-Rückblick Oral, Kazakhstan – gestern, letzte Wochen & Monate

Aktuell:-10 °C. Sonnig. (Wetterstation: Uralsk, Kazakhstan). Zur Wetterübersicht

Wetter-Rückblick für Oral — Graph

Temperatur gestern in Oral

Höchsttemperatur gestern: -9 °C (um 14:30 Uhr)
Tiefsttemperatur gestern: -17 °C (um 09:30 Uhr)
Durchschnittstemperatur gestern: -13 °C

Tiefst- und Höchstwerte der vergangenen Wochen

 TemperaturLuftfeuchteDruck
Höchst-3 °C (2. Feb, 11:42)100% (2. Feb, 04:00)1048 hPa (2. Feb, 04:00)
Tiefst-23 °C (29. Jan, 06:00)41% (29. Jan, 17:00)1017 hPa (1. Feb, 15:30)
Durchschnitt-12 °C74%1027 hPa
* Abgerufen 22. Jan 17:00 — 6. Feb 17:00, Oral. Wetterdaten von CustomWeather, © 2016

Hinweis: Spiegelt tatsächliche Extremwerte möglicherweise nicht korrekt wider, wenn diese zwischen den Ableseintervallen aufgetreten sind.

Oral Wetterrückblick

Nach rechts scrollen
 WetterbedingungenBioklima  
Uhrzeit TempWetterWind LuftfeuchteBarometerSicht
17:00
Mo, 6. Feb
-8 °CSonnig.9 km/h68%1028 hPa16 km
16:30-7 °CSonnig.13 km/h63%1028 hPa16 km
16:00-7 °CSonnig.13 km/h63%1027 hPa16 km
15:30-7 °CSonnig.9 km/h63%1027 hPa16 km
15:00-8 °CSonnig.9 km/h68%1027 hPa16 km
14:30-8 °CSonnig.6 km/h68%1027 hPa16 km
14:00-9 °CSonnig.6 km/h67%1027 hPa16 km
13:30-10 °CSonnig.6 km/h67%1027 hPa16 km
13:00-11 °CSonnig.9 km/h67%1027 hPa16 km
12:30-12 °CSonnig.9 km/h72%1027 hPa16 km
12:00-13 °CSonnig.9 km/h72%1027 hPa16 km
11:00-16 °CSonnig.9 km/h78%1027 hPa16 km
10:30-18 °CSonnig.9 km/h84%1027 hPa16 km
10:00-19 °CSonnig.6 km/h77%1027 hPa16 km
09:30-21 °CSonnig.6 km/h84%1027 hPa16 km
09:00-21 °CHeiter.9 km/h84%1027 hPa16 km
08:30-21 °CHeiter.9 km/h84%1026 hPa16 km
08:00-21 °CHeiter.9 km/h84%1026 hPa16 km
07:30-21 °CHeiter.6 km/h84%1026 hPa16 km
07:00-20 °CHeiter.6 km/h84%1026 hPa16 km
06:30-20 °CHeiter.2 km/h84%1026 hPa16 km
06:00-20 °CHeiter.9 km/h77%1026 hPa16 km
04:00-21 °CHeiter.9 km/h84%1025 hPa16 km
03:00-20 °CHeiter.9 km/h77%1025 hPa16 km
02:00-20 °CHeiter.6 km/h84%1025 hPa16 km
01:00-19 °CHeiter.13 km/h84%1025 hPa16 km
00:00-18 °CHeiter.6 km/h84%1025 hPa16 km
23:00
So, 5. Feb
-16 °CHeiter.9 km/h85%1025 hPa16 km
22:30-17 °CHeiter.9 km/h85%1024 hPa16 km
22:00-16 °CHeiter.9 km/h85%1024 hPa16 km
21:00-15 °CHeiter.9 km/h85%1024 hPa16 km
20:30-15 °CHeiter.9 km/h85%1024 hPa16 km
20:00-16 °CHeiter.6 km/h85%1024 hPa16 km
19:30-14 °CHeiter.6 km/h85%1024 hPa16 km
19:00-14 °CHeiter.9 km/h78%1023 hPa16 km
18:30-11 °CSonnig.13 km/h73%1023 hPa16 km
18:00-11 °CSonnig.6 km/h79%1023 hPa16 km
Wetterdaten von CustomWeather, © 2023

Wetter-Übersicht